Location: Oregon Star Party
(44.2935°N, 120.1332°W)
Time: 19:29:34
(UTC-07:00)

Amateur Radio Satellites - All Passes

Search period start: 02 September 2015 18:59
Search period end: 03 September 2015 18:59
Location: Oregon Star Party, 44.2935°N, 120.1332°W

Satellite Date Start Highest point End Downlink Frequencies (MHz)
Time Altitude Azimuth
STRAND 1 02 Sep 19:01:37 19:04:53 17° 89° (E) 19:08:19 437.568
BRITE-PL 02 Sep 19:07:28 19:11:32 36° 69° (ENE) 19:15:58 437.365/2234.400
CUTE-I 02 Sep 19:09:01 19:14:00 40° 263° (W) 19:18:59 437.470
GOMX 1 02 Sep 19:25:27 19:29:33 33° 68° (ENE) 19:34:01 467.674
CUTE 1.7 + AOD 2 02 Sep 19:25:47 19:27:51 14° 63° (ENE) 19:30:06 437.475
PRISM 02 Sep 19:28:51 19:31:44 19° 92° (E) 19:34:43 437.425
DOVE 4 02 Sep 19:29:02 19:32:45 24° 65° (ENE) 19:36:44 437.250
CANX-2 02 Sep 19:38:57 19:42:04 20° 66° (ENE) 19:45:17 2200.000
AIST 1 02 Sep 19:54:35 19:58:41 41° 267° (W) 20:02:46
SEEDS 02 Sep 19:56:21 19:59:35 22° 67° (ENE) 20:02:54 437.485
CUBESAT XI-V 02 Sep 19:57:57 20:02:15 37° 290° (WNW) 20:06:31 437.345
CINEMA 3 02 Sep 19:58:54 20:02:28 22° 64° (ENE) 20:06:14 145.822/145.860
Cubesat XI-IV 02 Sep 20:07:55 20:10:25 13° 274° (W) 20:12:36 437.490
COMPASS 1 02 Sep 20:14:17 20:17:46 26° 69° (ENE) 20:21:19 437.405
Oscar 11 02 Sep 20:15:50 20:17:22 12° 61° (ENE) 20:19:05 145.826/435.025
AAUSAT CUBESAT 2 02 Sep 20:22:29 20:26:00 27° 69° (ENE) 20:29:34 437.432
Cosmos 2491 02 Sep 20:27:39 20:36:28 86° 81° (E) 20:45:17 435.465 / 435.565
O/OREOS (USA 219) 02 Sep 20:32:24 20:35:47 20° 309° (NW) 20:39:05 437.305
DELFI C3 02 Sep 20:33:49 20:34:35 11° 62° (ENE) 20:35:33 145.870
YUBILEINY 02 Sep 20:36:18 20:44:18 43° 88° (E) 20:52:28 435.215
STRAND 1 02 Sep 20:39:31 20:44:35 62° 288° (WNW) 20:49:37 437.568
HO-68 02 Sep 20:41:21 20:48:31 86° 251° (WSW) 20:55:47 435.675
BRITE-PL 02 Sep 20:46:34 20:50:15 24° 269° (W) 20:54:05 437.365/2234.400
RS-15 02 Sep 20:49:22 20:58:35 27° 357° (N) 21:08:08 29.354- 29.394
CUTE 1.7 + AOD 2 02 Sep 20:59:02 21:03:18 65° 259° (W) 21:07:34 437.475
ZACube-1 02 Sep 21:01:27 21:05:03 24° 67° (ENE) 21:08:47 437.345
PRISM 02 Sep 21:03:30 21:07:20 39° 290° (WNW) 21:11:10 437.425
GOMX 1 02 Sep 21:03:45 21:07:45 28° 268° (W) 21:11:57 467.674
FUNcube-1 02 Sep 21:05:41 21:09:22 25° 67° (ENE) 21:13:12 145.935
DOVE 4 02 Sep 21:05:45 21:10:14 43° 264° (W) 21:14:58 437.250
CUBEBUG 2 02 Sep 21:10:09 21:14:36 47° 72° (ENE) 21:19:12 437.445
UWE-3 02 Sep 21:12:35 21:16:53 39° 70° (ENE) 21:21:16 435.000/436.395/437.385
CANX-2 02 Sep 21:13:42 21:17:46 40° 263° (W) 21:21:49 2200.000
HUMSAT D 02 Sep 21:28:38 21:31:29 18° 65° (ENE) 21:34:29 437.325/437.525
SEEDS 02 Sep 21:31:15 21:35:11 36° 263° (W) 21:39:07 437.485
CINEMA 3 02 Sep 21:34:42 21:39:18 49° 262° (W) 21:44:06 145.822/145.860
BEESAT 2 02 Sep 21:44:14 21:45:03 11° 30° (NNE) 21:46:00 435.950
DX 1 02 Sep 21:46:23 21:49:06 17° 63° (ENE) 21:51:58 434.975-435.025
Oscar 11 02 Sep 21:48:37 21:52:59 79° 258° (WSW) 21:57:21 145.826/435.025
COMPASS 1 02 Sep 21:49:39 21:53:22 29° 265° (W) 21:57:01 437.405
UKube-1 02 Sep 21:55:07 21:58:03 19° 64° (ENE) 22:01:06 .
AAUSAT CUBESAT 2 02 Sep 21:57:54 22:01:33 28° 266° (W) 22:05:08 437.432
DELFI C3 02 Sep 22:05:02 22:09:05 78° 258° (WSW) 22:13:09 145.870
CUBEBUG 1 02 Sep 22:12:18 22:13:59 12° 61° (ENE) 22:15:51 437.445
ESTCUBE 1 02 Sep 22:13:06 22:15:44 16° 63° (ENE) 22:18:32 437.505/2401.250
AISAT 02 Sep 22:16:57 22:20:22 23° 66° (ENE) 22:23:53 437.250
Cosmos 2491 02 Sep 22:26:11 22:32:21 21° 281° (W) 22:38:07 435.465 / 435.565
50 SAT 02 Sep 22:28:02 22:31:28 29° 69° (ENE) 22:34:57 437.505
YUBILEINY 02 Sep 22:32:44 22:41:08 46° 288° (WNW) 22:49:32 435.215
HO-68 02 Sep 22:33:03 22:37:26 16° 274° (W) 22:41:26 435.675
UNISAT 6 02 Sep 22:33:05 22:35:56 17° 89° (E) 22:38:52 437.425
ZACube-1 02 Sep 22:36:55 22:41:12 39° 263° (W) 22:45:32 437.345
FUNcube-1 02 Sep 22:41:19 22:45:32 36° 264° (W) 22:49:47 145.935
VELOX 1 02 Sep 22:43:41 22:47:46 39° 70° (ENE) 22:51:55 145.980
CUBEBUG 2 02 Sep 22:48:03 22:51:34 20° 270° (W) 22:55:02 437.445
UWE-3 02 Sep 22:49:45 22:53:32 24° 268° (W) 22:57:17 435.000/436.395/437.385
CUSAT 1 02 Sep 22:58:47 23:00:53 13° 79° (E) 23:03:29 437.405
TIGRISAT 02 Sep 22:59:53 23:03:52 30° 94° (E) 23:07:48 435.000
M-CUBED/EXP-1 PRIME 02 Sep 23:00:16 23:02:24 15° 94° (E) 23:04:37 437.505
HUMSAT D 02 Sep 23:02:41 23:06:53 48° 261° (W) 23:11:06 437.325/437.525
BEESAT 3 02 Sep 23:04:28 23:08:26 50° 51° (NE) 23:12:19 437.485
RS-15 02 Sep 23:04:43 23:15:20 39° 30° (NNE) 23:26:29 29.354- 29.394
Cosmos 2504 02 Sep 23:09:39 23:17:33 55° 90° (E) 23:25:54 435.465 / 435.565
POLYITAN 1 02 Sep 23:15:15 23:17:54 16° 90° (E) 23:20:43 437.675
DUCHIFAT 1 02 Sep 23:15:21 23:17:48 15° 89° (E) 23:20:24 145.980
POPSAT HIP 1 02 Sep 23:16:51 23:19:32 17° 90° (E) 23:22:22 437.405
ANTELSAT 02 Sep 23:17:42 23:22:07 47° 98° (E) 23:26:25 437.575/2403.000
BEESAT 2 02 Sep 23:20:02 23:24:02 55° 51° (NE) 23:27:59 435.950
DX 1 02 Sep 23:20:45 23:24:59 52° 260° (W) 23:29:16 434.975-435.025
UKube-1 02 Sep 23:29:42 23:33:52 46° 261° (W) 23:38:03 .
SPROUT 02 Sep 23:32:31 23:36:02 25° 67° (ENE) 23:39:38 437.525
NANOSAT C BR1 02 Sep 23:32:59 23:36:26 24° 93° (E) 23:39:58 145.865
QB50P2 02 Sep 23:33:47 23:37:22 26° 94° (E) 23:41:00 145.880/145.840
DANDE 02 Sep 23:42:50 23:45:39 20° 84° (E) 23:49:10 436.750
CUBEBUG 1 02 Sep 23:45:28 23:49:47 76° 258° (WSW) 23:54:09 437.445
QB50P1 02 Sep 23:47:21 23:51:17 34° 96° (E) 23:55:14 145.935-145.965
ESTCUBE 1 02 Sep 23:47:45 23:52:10 59° 259° (W) 23:56:37 437.505/2401.250
AISAT 02 Sep 23:52:37 23:56:45 38° 263° (W) 00:00:53 437.250
50 SAT 03 Sep 00:02:48 00:06:00 23° 266° (W) 00:09:09 437.505
SO-50 03 Sep 00:04:57 00:08:28 21° 112° (ESE) 00:12:11 436.795
UNISAT 6 03 Sep 00:08:38 00:13:07 52° 288° (WNW) 00:17:26 437.425
AIST 2 03 Sep 00:12:25 00:16:25 41° 48° (NE) 00:20:21 435.215
VELOX 1 03 Sep 00:21:06 00:24:29 21° 268° (W) 00:27:49 145.980
AUBIESAT-1 03 Sep 00:25:58 00:29:51 64° 292° (WNW) 00:33:25 437.475
TISAT 1 03 Sep 00:26:20 00:30:26 53° 73° (ENE) 00:34:36 437.305
M-CUBED/EXP-1 PRIME 03 Sep 00:33:47 00:37:36 43° 294° (WNW) 00:41:04 437.505
TIGRISAT 03 Sep 00:36:36 00:40:35 29° 292° (WNW) 00:44:24 435.000
CUSAT 1 03 Sep 00:38:09 00:42:19 64° 285° (WNW) 00:48:00 437.405
BEESAT 3 03 Sep 00:43:20 00:45:59 17° 248° (WSW) 00:48:29 437.485
BUGSAT 1 03 Sep 00:46:35 00:50:53 88° 284° (WNW) 00:55:09 437.445
BEESAT 03 Sep 00:47:10 00:50:25 19° 63° (ENE) 00:53:49 436.000
DUCHIFAT 1 03 Sep 00:49:46 00:53:58 52° 287° (WNW) 00:58:06 145.980
POLYITAN 1 03 Sep 00:49:56 00:54:08 49° 288° (WNW) 00:58:16 437.675
POPSAT HIP 1 03 Sep 00:51:33 00:55:44 48° 288° (WNW) 00:59:51 437.405
ANTELSAT 03 Sep 00:55:14 00:58:34 20° 296° (WNW) 01:01:44 437.575/2403.000
BEESAT 2 03 Sep 00:59:11 01:01:41 15° 248° (WSW) 01:04:01 435.950
PCSat 03 Sep 00:59:12 01:03:36 27° 110° (ESE) 01:08:08 145.827
Cosmos 2504 03 Sep 01:02:39 01:10:11 36° 292° (WNW) 01:17:54 435.465 / 435.565
SPROUT 03 Sep 01:08:08 01:12:00 31° 264° (W) 01:15:52 437.525
NANOSAT C BR1 03 Sep 01:08:28 01:12:20 33° 291° (WNW) 01:16:08 145.865
QB50P2 03 Sep 01:09:28 01:13:17 31° 291° (WNW) 01:17:02 145.880/145.840
SWISSCUBE 03 Sep 01:12:18 01:16:33 34° 68° (ENE) 01:20:52 437.505
RS-15 03 Sep 01:17:30 01:29:23 86° 236° (SW) 01:41:40 29.354- 29.394
QB50P1 03 Sep 01:23:31 01:26:59 23° 293° (WNW) 01:30:21 145.935-145.965
DANDE 03 Sep 01:24:47 01:28:21 34° 293° (WNW) 01:32:59 436.750
GONETS M04 03 Sep 01:26:51 01:32:24 20° 79° (E) 01:38:25
SO-50 03 Sep 01:43:55 01:48:39 56° 310° (NW) 01:53:33 436.795
AIST 2 03 Sep 01:51:28 01:54:45 22° 246° (WSW) 01:57:55 435.215
ITUPSAT 1 03 Sep 01:51:29 01:56:14 73° 74° (ENE) 02:01:01 437.325
Oscar 19 03 Sep 01:57:20 02:02:05 35° 96° (E) 02:06:51 437.125/150
TISAT 1 03 Sep 02:04:10 02:06:36 14° 271° (W) 02:08:50 437.305
BEESAT 03 Sep 02:23:13 02:27:54 54° 260° (W) 02:32:35 436.000
BUGSAT 1 03 Sep 02:25:29 02:25:42 10° 300° (WNW) 02:25:42 437.445
STARS 03 Sep 02:30:24 02:33:33 20° 65° (ENE) 02:36:50 437.465
Cosmos 2499 03 Sep 02:33:47 02:37:15 14° 74° (ENE) 02:41:23 435.465 / 435.565
JAS-2 03 Sep 02:36:00 02:39:48 16° 82° (E) 02:43:43 435.910
PCSat 03 Sep 02:41:32 02:46:47 49° 307° (NW) 02:52:04 145.827
VERMONT LUNAR 03 Sep 02:42:35 02:44:19 14° 156° (SSE) 02:46:04 437.305
SWISSCUBE 03 Sep 02:50:21 02:54:27 28° 265° (W) 02:58:32 437.505
KKS-1 03 Sep 02:54:00 02:58:20 55° 72° (ENE) 03:02:44 437.445
Gurwin Techsat 1B 03 Sep 02:58:07 03:03:07 41° 97° (E) 03:08:08 435.225
ITAMSAT 1 03 Sep 03:01:40 03:06:22 35° 96° (E) 03:11:08 435.822/435.867
GONETS M04 03 Sep 03:19:30 03:28:13 88° 276° (W) 03:37:01
O/OREOS (USA 219) 03 Sep 03:21:30 03:24:37 18° 50° (NE) 03:27:50 437.305
MOZHAYETS 4 03 Sep 03:25:48 03:28:59 19° 65° (ENE) 03:32:18
SO-50 03 Sep 03:27:41 03:30:20 14° 332° (NNW) 03:32:53 436.795
RS-15 03 Sep 03:31:29 03:40:33 25° 257° (WSW) 03:49:13 29.354- 29.394
ITUPSAT 1 03 Sep 03:32:25 03:34:45 13° 272° (W) 03:36:49 437.325
Oscar 19 03 Sep 03:36:47 03:41:24 32° 294° (WNW) 03:45:55 437.125/150
HORYU 2 03 Sep 03:56:49 03:59:12 15° 89° (E) 04:01:45 437.375
AO-7 03 Sep 04:00:56 04:07:47 29° 93° (E) 04:14:47 29.400- 29.500
STARS 03 Sep 04:05:28 04:09:43 45° 261° (W) 04:13:59 437.465
VERMONT LUNAR 03 Sep 04:17:30 04:20:16 34° 171° (S) 04:23:01 437.305
JAS-2 03 Sep 04:19:05 04:26:09 87° 286° (WNW) 04:32:18 435.910
Cosmos 2499 03 Sep 04:20:26 04:28:51 67° 93° (E) 04:37:41 435.465 / 435.565
PCSat 03 Sep 04:29:18 04:31:38 12° 331° (NNW) 04:33:47 145.827
KKS-1 03 Sep 04:32:34 04:35:22 16° 270° (W) 04:38:00 437.445
Gurwin Techsat 1B 03 Sep 04:38:26 04:42:58 29° 295° (WNW) 04:47:25 435.225
ITAMSAT 1 03 Sep 04:41:15 04:45:50 32° 294° (WNW) 04:50:22 435.822/435.867
O/OREOS (USA 219) 03 Sep 04:59:57 05:04:31 61° 250° (WSW) 05:09:02 437.305
MOZHAYETS 4 03 Sep 05:01:24 05:05:53 50° 261° (W) 05:10:23
GONETS M04 03 Sep 05:20:19 05:26:36 20° 302° (WNW) 05:32:35
CUBESAT XI-V 03 Sep 05:25:55 05:29:49 29° 68° (ENE) 05:33:47 437.345
HORYU 2 03 Sep 05:31:52 05:36:17 58° 288° (WNW) 05:40:38 437.375
PHONESAT 2.4 03 Sep 05:49:50 05:52:50 29° 164° (SSE) 05:55:50 2401.200-2431.200
AO-7 03 Sep 05:53:02 06:01:16 68° 293° (WNW) 06:09:26 29.400- 29.500
VERMONT LUNAR 03 Sep 05:53:37 05:56:22 35° 188° (S) 05:59:07 437.305
JAS-2 03 Sep 06:05:34 06:10:10 18° 306° (NW) 06:14:15 435.910
Cosmos 2499 03 Sep 06:15:18 06:22:49 31° 296° (WNW) 06:30:22 435.465 / 435.565
STRAND 1 03 Sep 06:18:44 06:23:06 30° 66° (ENE) 06:27:33 437.568
PRISM 03 Sep 06:20:43 06:23:28 18° 65° (ENE) 06:26:20 437.425
Cubesat XI-IV 03 Sep 06:40:12 06:44:48 30° 94° (E) 06:49:29 437.490
YUBILEINY 03 Sep 06:44:27 06:51:01 23° 60° (ENE) 06:57:51 435.215
SO-50 03 Sep 06:55:45 06:56:09 10° 21° (NNE) 06:56:42 436.795
CUBESAT XI-V 03 Sep 07:03:06 07:07:12 31° 265° (W) 07:11:17 437.345
BRITE-PL 03 Sep 07:11:18 07:13:56 14° 85° (E) 07:16:54 437.365/2234.400
CUTE-I 03 Sep 07:23:55 07:29:14 72° 102° (ESE) 07:34:34 437.470
ISS 03 Sep 07:26:53 07:28:37 14° 134° (SE) 07:30:27 145.825
PHONESAT 2.4 03 Sep 07:27:07 07:30:22 44° 180° (S) 07:33:38 2401.200-2431.200
GOMX 1 03 Sep 07:27:43 07:28:57 11° 83° (E) 07:30:35 467.674
VERMONT LUNAR 03 Sep 07:30:30 07:32:20 15° 204° (SSW) 07:34:07 437.305
Cosmos 2491 03 Sep 07:37:34 07:43:08 20° 79° (E) 07:49:09 435.465 / 435.565
AO-7 03 Sep 07:47:31 07:52:43 18° 314° (NW) 07:57:36 29.400- 29.500
PRISM 03 Sep 07:54:44 07:58:38 42° 261° (W) 08:02:32 437.425
STRAND 1 03 Sep 07:57:32 08:02:14 36° 264° (W) 08:06:55 437.568
HO-68 03 Sep 08:09:10 08:13:13 16° 86° (E) 08:17:38 435.675
Cubesat XI-IV 03 Sep 08:20:05 08:25:01 39° 292° (WNW) 08:29:54 437.490
AIST 1 03 Sep 08:25:09 08:29:24 78° 279° (W) 08:33:41
SO-50 03 Sep 08:33:47 08:38:16 33° 43° (NE) 08:42:43 436.795
YUBILEINY 03 Sep 08:40:17 08:49:10 84° 263° (W) 08:57:58 435.215
CUTE 1.7 + AOD 2 03 Sep 08:43:27 08:46:25 19° 91° (E) 08:49:30 437.475
BRITE-PL 03 Sep 08:47:35 08:53:11 89° 285° (WNW) 08:58:55 437.365/2234.400
Cosmos 2504 03 Sep 08:55:20 09:01:11 21° 58° (ENE) 09:07:09 435.465 / 435.565
CANX-2 03 Sep 08:57:23 09:01:05 29° 95° (E) 09:04:48 2200.000
ISS 03 Sep 09:01:24 09:04:40 83° 333° (NNW) 09:07:56 145.825
GOMX 1 03 Sep 09:02:30 09:08:01 79° 102° (ESE) 09:13:31 467.674
DOVE 4 03 Sep 09:02:41 09:07:53 50° 98° (E) 09:12:59 437.250
PHONESAT 2.4 03 Sep 09:04:57 09:07:55 28° 197° (SSW) 09:10:51 2401.200-2431.200
CUTE-I 03 Sep 09:05:16 09:08:48 18° 300° (WNW) 09:12:10 437.470
SEEDS 03 Sep 09:13:46 09:17:30 31° 95° (E) 09:21:15 437.485
CINEMA 3 03 Sep 09:28:04 09:32:43 39° 96° (E) 09:37:16 145.822/145.860
CUSAT 1 03 Sep 09:29:06 09:35:14 25° 62° (ENE) 09:41:53 437.405
Cosmos 2491 03 Sep 09:30:15 09:38:58 87° 278° (W) 09:47:45 435.465 / 435.565
COMPASS 1 03 Sep 09:30:51 09:34:43 37° 97° (E) 09:38:36 437.405
UNISAT 6 03 Sep 09:33:22 09:36:44 20° 64° (ENE) 09:40:13 437.425
Oscar 11 03 Sep 09:35:28 09:38:12 17° 90° (E) 09:41:03 145.826/435.025
AAUSAT CUBESAT 2 03 Sep 09:38:31 09:42:23 38° 97° (E) 09:46:16 437.432
AUBIESAT-1 03 Sep 09:40:07 09:43:52 25° 61° (ENE) 09:47:37 437.475
DELFI C3 03 Sep 09:44:10 09:45:44 12° 88° (E) 09:47:29 145.870
PCSat 03 Sep 09:44:35 09:49:28 33° 47° (NE) 09:54:24 145.827
M-CUBED/EXP-1 PRIME 03 Sep 09:47:41 09:51:57 33° 64° (ENE) 09:56:08 437.505
HO-68 03 Sep 09:54:50 10:02:06 86° 106° (ESE) 10:09:19 435.675
TIGRISAT 03 Sep 09:59:46 10:03:57 33° 69° (ENE) 10:08:12 435.000
DUCHIFAT 1 03 Sep 10:09:38 10:12:00 15° 63° (ENE) 10:14:32 145.980
POLYITAN 1 03 Sep 10:10:06 10:12:43 16° 64° (ENE) 10:15:29 437.675
POPSAT HIP 1 03 Sep 10:11:32 10:14:09 16° 64° (ENE) 10:16:55 437.405
SO-50 03 Sep 10:14:17 10:18:54 40° 243° (WSW) 10:23:22 436.795
DANDE 03 Sep 10:17:05 10:24:01 37° 69° (ENE) 10:31:47 436.750
ANTELSAT 03 Sep 10:17:40 10:22:13 51° 72° (ENE) 10:26:49 437.575/2403.000
CUTE 1.7 + AOD 2 03 Sep 10:18:34 10:22:32 39° 289° (WNW) 10:26:27 437.475
ZACube-1 03 Sep 10:23:56 10:28:05 36° 96° (E) 10:32:09 437.345
NANOSAT C BR1 03 Sep 10:27:09 10:30:28 23° 67° (ENE) 10:33:52 145.865
BRITE-PL 03 Sep 10:27:47 10:31:02 15° 299° (WNW) 10:34:06 437.365/2234.400
FUNcube-1 03 Sep 10:27:57 10:32:08 39° 96° (E) 10:36:14 145.935
QB50P2 03 Sep 10:28:20 10:31:46 25° 67° (ENE) 10:35:18 145.880/145.840
CANX-2 03 Sep 10:33:24 10:36:56 26° 292° (WNW) 10:40:24 2200.000
CUBEBUG 2 03 Sep 10:36:08 10:40:51 84° 103° (ESE) 10:45:23 437.445
UWE-3 03 Sep 10:37:04 10:41:40 67° 101° (E) 10:46:06 435.000/436.395/437.385
ISS 03 Sep 10:38:38 10:41:25 25° 348° (NNW) 10:44:13 145.825
YUBILEINY 03 Sep 10:39:13 10:44:47 18° 283° (WNW) 10:49:53 435.215
DOVE 4 03 Sep 10:41:01 10:45:18 25° 295° (WNW) 10:49:26 437.250
QB50P1 03 Sep 10:41:31 10:45:18 32° 69° (ENE) 10:49:09 145.935-145.965
GOMX 1 03 Sep 10:41:58 10:45:33 17° 298° (WNW) 10:48:56 467.674
HUMSAT D 03 Sep 10:45:31 10:48:55 24° 93° (E) 10:52:20 437.325/437.525
Cosmos 2504 03 Sep 10:46:19 10:54:53 89° 82° (E) 11:02:52 435.465 / 435.565
SEEDS 03 Sep 10:49:46 10:53:10 24° 292° (WNW) 10:56:29 437.485
CINEMA 3 03 Sep 11:05:31 11:09:44 27° 294° (WNW) 11:13:48 145.822/145.860
COMPASS 1 03 Sep 11:07:03 11:10:10 20° 294° (WNW) 11:13:10 437.405
DX 1 03 Sep 11:07:50 11:11:19 23° 93° (E) 11:14:52 434.975-435.025
UNISAT 6 03 Sep 11:08:36 11:13:10 50° 261° (W) 11:17:47 437.425
Oscar 11 03 Sep 11:10:31 11:14:41 47° 288° (WNW) 11:18:48 145.826/435.025
CUSAT 1 03 Sep 11:10:43 11:18:40 83° 262° (W) 11:26:54 437.405
AUBIESAT-1 03 Sep 11:13:50 11:18:21 43° 257° (WSW) 11:22:45 437.475
AAUSAT CUBESAT 2 03 Sep 11:14:43 11:17:45 20° 294° (WNW) 11:20:41 437.432
UKube-1 03 Sep 11:15:45 11:19:19 25° 94° (E) 11:22:57 .
DELFI C3 03 Sep 11:17:17 11:21:14 56° 286° (WNW) 11:25:07 145.870
M-CUBED/EXP-1 PRIME 03 Sep 11:22:22 11:26:40 32° 259° (W) 11:30:50 437.505
PCSat 03 Sep 11:27:54 11:33:01 42° 247° (WSW) 11:38:04 145.827
Cosmos 2491 03 Sep 11:31:06 11:37:23 20° 302° (WNW) 11:43:20 435.465 / 435.565
CUBEBUG 1 03 Sep 11:33:32 11:36:30 18° 91° (E) 11:39:38 437.445
GONETS M04 03 Sep 11:34:55 11:36:39 11° 47° (NE) 11:39:03
50 SAT 03 Sep 11:35:27 11:38:58 33° 96° (E) 11:42:28 437.505
TIGRISAT 03 Sep 11:36:38 11:40:43 28° 266° (W) 11:44:46 435.000
BUGSAT 1 03 Sep 11:37:51 11:41:55 78° 76° (ENE) 11:46:06 437.445
ESTCUBE 1 03 Sep 11:39:09 11:42:51 25° 94° (E) 11:46:37 437.505/2401.250
AISAT 03 Sep 11:41:20 11:45:26 35° 97° (E) 11:49:34 437.250
DUCHIFAT 1 03 Sep 11:43:12 11:47:22 57° 259° (W) 11:51:36 145.980
HO-68 03 Sep 11:43:48 11:49:04 22° 305° (NW) 11:54:07 435.675
POLYITAN 1 03 Sep 11:44:03 11:48:14 53° 260° (W) 11:52:29 437.675
POPSAT HIP 1 03 Sep 11:45:28 11:49:38 52° 260° (W) 11:53:51 437.405
ANTELSAT 03 Sep 11:55:59 11:59:19 18° 270° (W) 12:02:31 437.575/2403.000
DANDE 03 Sep 11:59:53 12:07:28 58° 265° (W) 12:15:44 436.750
ZACube-1 03 Sep 12:00:37 12:04:15 24° 294° (WNW) 12:07:43 437.345
NANOSAT C BR1 03 Sep 12:02:12 12:06:07 35° 263° (W) 12:10:03 145.865
QB50P2 03 Sep 12:03:40 12:07:31 32° 264° (W) 12:11:24 145.880/145.840
FUNcube-1 03 Sep 12:04:43 12:08:14 22° 294° (WNW) 12:11:36 145.935
VELOX 1 03 Sep 12:08:26 12:12:54 65° 102° (ESE) 12:17:20 145.980
CUBEBUG 2 03 Sep 12:14:47 12:16:53 13° 300° (WNW) 12:18:44 437.445
UWE-3 03 Sep 12:15:02 12:17:39 15° 298° (WNW) 12:20:05 435.000/436.395/437.385
ISS 03 Sep 12:15:49 12:18:32 24° 9° (N) 12:21:15 145.825
QB50P1 03 Sep 12:17:42 12:21:13 24° 266° (W) 12:24:42 145.935-145.965
HUMSAT D 03 Sep 12:20:54 12:24:43 32° 291° (WNW) 12:28:24 437.325/437.525
Cosmos 2504 03 Sep 12:40:17 12:45:59 20° 282° (WNW) 12:51:07 435.465 / 435.565
DX 1 03 Sep 12:43:38 12:47:40 36° 291° (WNW) 12:51:40 434.975-435.025
Gurwin Techsat 1B 03 Sep 12:45:05 12:46:48 12° 57° (ENE) 12:48:48 435.225
JAS-2 03 Sep 12:51:00 12:54:15 14° 50° (NE) 12:57:51 435.910
UKube-1 03 Sep 12:51:35 12:55:30 32° 291° (WNW) 12:59:21 .
SPROUT 03 Sep 12:52:39 12:56:43 38° 97° (E) 13:00:47 437.525
CUSAT 1 03 Sep 12:54:59 13:00:24 19° 277° (W) 13:05:33 437.405
CUBEBUG 1 03 Sep 13:08:54 13:13:09 46° 288° (WNW) 13:17:23 437.445
50 SAT 03 Sep 13:10:26 13:13:18 20° 293° (WNW) 13:16:03 437.505
AO-7 03 Sep 13:15:27 13:18:16 12° 40° (NE) 13:21:29 29.400- 29.500
Oscar 19 03 Sep 13:15:34 13:20:38 60° 72° (ENE) 13:25:47 437.125/150
ESTCUBE 1 03 Sep 13:15:42 13:19:47 34° 291° (WNW) 13:23:50 437.505/2401.250
AISAT 03 Sep 13:18:10 13:21:52 25° 293° (WNW) 13:25:30 437.250
GONETS M04 03 Sep 13:27:49 13:36:20 52° 73° (ENE) 13:44:55
TISAT 1 03 Sep 13:44:32 13:48:51 80° 103° (ESE) 13:53:07 437.305
VELOX 1 03 Sep 13:46:23 13:48:59 15° 298° (WNW) 13:51:25 145.980
DANDE 03 Sep 13:46:44 13:49:33 12° 280° (W) 13:51:49 436.750
ITUPSAT 1 03 Sep 13:51:39 13:54:35 17° 90° (E) 13:57:42 437.325
ISS 03 Sep 13:52:08 13:55:22 65° 28° (NNE) 13:58:36 145.825
Cosmos 2499 03 Sep 14:10:49 14:17:52 28° 62° (ENE) 14:24:46 435.465 / 435.565
Gurwin Techsat 1B 03 Sep 14:20:42 14:25:58 75° 75° (ENE) 14:31:19 435.225
ITAMSAT 1 03 Sep 14:21:05 14:26:11 63° 72° (ENE) 14:31:19 435.822/435.867
BEESAT 03 Sep 14:21:55 14:26:12 33° 96° (E) 14:30:30 436.000
SPROUT 03 Sep 14:29:12 14:32:35 22° 294° (WNW) 14:35:51 437.525
JAS-2 03 Sep 14:30:19 14:37:49 55° 69° (ENE) 14:45:24 435.910
BEESAT 3 03 Sep 14:35:27 14:39:25 56° 121° (ESE) 14:43:26 437.485
SWISSCUBE 03 Sep 14:48:03 14:52:48 65° 101° (E) 14:57:31 437.505
BEESAT 2 03 Sep 14:52:05 14:56:07 63° 122° (ESE) 15:00:13 435.950
HORYU 2 03 Sep 14:56:31 14:59:30 18° 64° (ENE) 15:02:37 437.375
Oscar 19 03 Sep 14:56:51 15:00:28 18° 270° (W) 15:03:56 437.125/150
AO-7 03 Sep 15:01:22 15:09:09 47° 62° (ENE) 15:17:01 29.400- 29.500
TISAT 1 03 Sep 15:22:28 15:24:02 12° 299° (WNW) 15:25:23 437.305
GONETS M04 03 Sep 15:25:04 15:33:00 38° 274° (W) 15:40:47
ITUPSAT 1 03 Sep 15:28:13 15:32:55 58° 288° (WNW) 15:37:35 437.325
ISS 03 Sep 15:29:10 15:31:31 18° 225° (SW) 15:33:48 145.825
RS-15 03 Sep 15:42:53 15:53:13 53° 113° (ESE) 16:04:05 29.354- 29.394
AIST 2 03 Sep 15:49:35 15:53:41 51° 120° (ESE) 15:57:49 435.215
STARS 03 Sep 15:53:38 15:57:29 29° 95° (E) 16:01:22 437.465
BEESAT 03 Sep 15:59:51 16:03:58 29° 293° (WNW) 16:08:02 436.000
ITAMSAT 1 03 Sep 16:02:45 16:06:12 17° 271° (W) 16:09:29 435.822/435.867
Cosmos 2499 03 Sep 16:03:23 16:12:00 71° 266° (W) 16:19:57 435.465 / 435.565
Gurwin Techsat 1B 03 Sep 16:03:34 16:06:39 15° 273° (W) 16:09:29 435.225
BEESAT 3 03 Sep 16:14:36 16:17:40 20° 320° (NW) 16:20:42 437.485
JAS-2 03 Sep 16:16:01 16:23:05 36° 267° (W) 16:30:08 435.910
KKS-1 03 Sep 16:19:46 16:24:18 90° 96° (E) 16:28:48 437.445
SWISSCUBE 03 Sep 16:27:12 16:30:11 16° 298° (WNW) 16:33:01 437.505
HORYU 2 03 Sep 16:31:23 16:35:47 52° 260° (W) 16:40:12 437.375
BEESAT 2 03 Sep 16:31:35 16:34:34 19° 321° (NW) 16:37:29 435.950
AO-7 03 Sep 16:54:08 17:02:03 44° 261° (W) 17:09:54 29.400- 29.500
MOZHAYETS 4 03 Sep 16:54:57 16:59:04 33° 95° (E) 17:03:13
CUTE-I 03 Sep 17:09:27 17:13:11 20° 62° (ENE) 17:17:04 437.470
AIST 2 03 Sep 17:29:07 17:32:31 22° 319° (NW) 17:35:53 435.215
STARS 03 Sep 17:30:00 17:33:53 29° 292° (WNW) 17:37:43 437.465
O/OREOS (USA 219) 03 Sep 17:37:16 17:39:06 13° 99° (E) 17:41:11 437.305
Cosmos 2491 03 Sep 17:45:52 17:47:28 11° 47° (NE) 17:49:43 435.465 / 435.565
RS-15 03 Sep 17:55:01 18:05:47 53° 319° (NW) 18:16:59 29.354- 29.394
KKS-1 03 Sep 17:58:50 18:00:18 11° 300° (WNW) 18:01:32 437.445
Cosmos 2499 03 Sep 17:59:32 18:03:36 14° 286° (WNW) 18:07:00 435.465 / 435.565
Cubesat XI-IV 03 Sep 18:03:39 18:08:50 57° 71° (ENE) 18:14:04 437.490
BRITE-PL 03 Sep 18:24:26 18:26:59 15° 60° (ENE) 18:29:47 437.365/2234.400
AIST 1 03 Sep 18:30:46 18:34:35 29° 73° (ENE) 18:38:26
MOZHAYETS 4 03 Sep 18:32:21 18:36:12 27° 293° (WNW) 18:39:58
GOMX 1 03 Sep 18:37:28 18:39:29 13° 59° (ENE) 18:41:45 467.674
HO-68 03 Sep 18:40:45 18:44:56 17° 52° (NE) 18:49:25 435.675
CUTE-I 03 Sep 18:47:35 18:52:51 61° 259° (WSW) 18:58:07 437.470
